Location: Burgerwiesen
(48.6500°N, 15.6167°E)
Time: 07:25:41
(UTC+00:00)

STARLINK-1219 - Visible Passes

Search period start: 11 August 2020 00:00
Search period end: 21 August 2020 00:00
Orbit: 549 x 551 km, 53.0° (Epoch: 11 August)

Date Brightness Start Highest point End Pass type
(mag) Time Alt. Az. Time Alt. Az. Time Alt. Az.
11 Aug 4.1 19:47:32 10° WNW 19:51:38 57° NNE 19:54:50 16° E visible
11 Aug 4.3 21:27:13 10° WNW 21:30:27 43° WSW 21:30:27 43° WSW visible
12 Aug 3.9 19:42:04 10° WNW 19:46:12 64° NNE 19:49:13 18° E visible
12 Aug 4.7 21:21:48 10° WNW 21:24:51 35° WSW 21:24:51 35° WSW visible
13 Aug 3.7 19:36:35 10° WNW 19:40:44 74° NNE 19:43:39 19° ESE visible
13 Aug 5.0 21:16:25 10° WNW 21:19:16 28° WSW 21:19:16 28° WSW visible
14 Aug 3.6 19:31:05 10° WNW 19:35:15 86° NNE 19:38:06 20° ESE visible
14 Aug 5.3 21:11:07 10° W 21:13:44 23° WSW 21:13:44 23° WSW visible
15 Aug 3.6 19:25:35 10° WNW 19:29:45 79° SSW 19:32:36 19° ESE visible
15 Aug 5.6 21:05:54 10° W 21:08:15 18° WSW 21:08:15 18° WSW visible
16 Aug 3.8 19:20:06 10° WNW 19:24:12 65° SSW 19:27:09 18° SE visible
16 Aug 5.9 21:00:52 10° W 21:02:47 14° SW 21:02:47 14° SW visible
17 Aug 4.1 19:14:37 10° WNW 19:18:39 51° SW 19:21:44 16° SE visible
17 Aug 6.2 20:56:26 10° WSW 20:57:23 11° SW 20:57:23 11° SW visible
18 Aug 4.5 19:09:10 10° WNW 19:13:04 41° SW 19:16:23 13° SSE visible
19 Aug 4.9 19:03:45 10° WNW 19:07:27 32° SW 19:11:06 10° SSE visible
20 Aug 5.3 18:58:23 10° W 19:01:49 25° SW 19:05:14 10° SSE visible
